Hauptseite
METAR-TAF:

METAR-TAF

Flughäfen :

RAF Boulmer

Boulmer, England

Breite: 55-25-19N, Länge: 1-36-12W, Höhe: 24 m

Beobachtung

Neuester Wetterbericht von vor 33 Minuten, um 17:50 UTC
Wind 10 kt aus Südwest
Temperatur 18°C
Luftfeuchtigkeit 73%
Luftdruck 1003 hPa
Sichtweite 10 km oder mehr

METAR: EGQM 251750Z AUTO 23010KT 9999 FEW061/// BKN110/// 18/13 Q1003

Zeit: 19:23 (18:23 UTC)


TAF: fehlend

Wetterbeobachtungen und Prognosen von mehr als 4000 Flughäfen (METAR und TAF Bericht).

Die verfügbaren Stationen werden durch gelbe und rote Markierungen auf der Karte dargestellt.

Führen Sie die Maus auf sie, um den Namen der Station zu sehen.

Darauf klicken, um die Beobachtung von Wetterbeobachtungen und Prognosen zu sehen.

Um die Karte zu ändern : klicken Sie auf den grünen Tasten mit einem schwarzen Kreuz Zum Vergrößern, auf den grünen Button mit einem Gedankenstrich zu verkleinern, oder auf die grünen Pfeile für benachbarte Karten.


METAR-TAF: